GLO2130 SBCY-SBPV

Flight info

Callsign GLO2130
Flight time 1h 35m
Altitude 36000
Route GETMA DCT NETBU DCT DUBGI DCT
Aircraft B38M/M-DFGHIJ4J7KLORWXY/LB1

Departure

Time 2026-04-18 20:31
Airport Várzea Grande–Marechal Rondon International Airport (SBCY)

Arrival

Time 2026-04-18 22:06
Airport Governador Jorge Teixeira de Oliveira International Airport (SBPV)
Time Latitude Longitude Altitude Speed Heading
2026-04-18 20:14 -15.65042 -56.11981 599 ft 0 kts 242°
2026-04-18 20:21 -15.65039 -56.11974 599 ft 3 kts 242°
2026-04-18 20:22 -15.65031 -56.11952 599 ft 4 kts 278°
2026-04-18 20:22 -15.65044 -56.11933 599 ft 4 kts 329°
2026-04-18 20:22 -15.65056 -56.11926 599 ft 1 kts 333°
2026-04-18 20:22 -15.65057 -56.11925 599 ft 0 kts 333°
2026-04-18 20:26 -15.65053 -56.11929 599 ft 2 kts 314°
2026-04-18 20:26 -15.65053 -56.11948 599 ft 0 kts 265°
2026-04-18 20:27 -15.65054 -56.11949 599 ft 1 kts 256°
2026-04-18 20:27 -15.65065 -56.11952 599 ft 2 kts 173°
2026-04-18 20:27 -15.65091 -56.11921 599 ft 10 kts 112°
2026-04-18 20:27 -15.65084 -56.11874 600 ft 0 kts 64°
2026-04-18 20:28 -15.65081 -56.11869 600 ft 5 kts 64°
2026-04-18 20:28 -15.65029 -56.11814 600 ft 17 kts 358°
2026-04-18 20:28 -15.64885 -56.11888 598 ft 27 kts 333°
2026-04-18 20:28 -15.64710 -56.11981 598 ft 29 kts 334°
2026-04-18 20:29 -15.64529 -56.12076 598 ft 27 kts 333°
2026-04-18 20:29 -15.64428 -56.12171 599 ft 14 kts 304°
2026-04-18 20:29 -15.64392 -56.12152 599 ft 7 kts 119°
2026-04-18 20:29 -15.64403 -56.12143 599 ft 0 kts 151°
2026-04-18 20:30 -15.64499 -56.12090 598 ft 50 kts 154°
2026-04-18 20:30 -15.65035 -56.11806 600 ft 121 kts 153°
2026-04-18 20:30 -15.65949 -56.11333 630 ft 174 kts 155°
2026-04-18 20:30 -15.66942 -56.10810 994 ft 188 kts 153°
2026-04-18 20:31 -15.68146 -56.10251 1540 ft 196 kts 171°
2026-04-18 20:31 -15.69550 -56.10454 1835 ft 219 kts 206°
2026-04-18 20:31 -15.70729 -56.11530 2324 ft 235 kts 234°
2026-04-18 20:31 -15.71769 -56.12884 3143 ft 245 kts 230°
2026-04-18 20:32 -15.72888 -56.14249 4032 ft 251 kts 229°
2026-04-18 20:32 -15.74040 -56.15646 4932 ft 257 kts 229°
2026-04-18 20:32 -15.75198 -56.17067 5569 ft 271 kts 233°
2026-04-18 20:32 -15.76173 -56.18808 5604 ft 277 kts 243°
2026-04-18 20:33 -15.77055 -56.20589 5754 ft 283 kts 243°
2026-04-18 20:33 -15.77968 -56.22408 5786 ft 284 kts 242°
2026-04-18 20:33 -15.78659 -56.24325 6084 ft 283 kts 265°
2026-04-18 20:33 -15.78465 -56.26330 7005 ft 283 kts 288°
2026-04-18 20:34 -15.77551 -56.28159 7821 ft 288 kts 305°
2026-04-18 20:34 -15.76400 -56.29880 8681 ft 293 kts 305°
2026-04-18 20:34 -15.75219 -56.31618 9557 ft 297 kts 306°
2026-04-18 20:34 -15.74000 -56.33386 10241 ft 307 kts 306°
2026-04-18 20:35 -15.72709 -56.35241 10714 ft 324 kts 306°
2026-04-18 20:35 -15.71359 -56.37169 11292 ft 335 kts 306°
2026-04-18 20:35 -15.69983 -56.39130 12113 ft 337 kts 306°
2026-04-18 20:35 -15.68608 -56.41085 12872 ft 342 kts 306°
2026-04-18 20:36 -15.67197 -56.43090 13647 ft 345 kts 306°
2026-04-18 20:36 -15.65769 -56.45118 14331 ft 349 kts 306°
2026-04-18 20:36 -15.64325 -56.47168 15024 ft 353 kts 306°
2026-04-18 20:36 -15.62871 -56.49232 15694 ft 357 kts 306°
2026-04-18 20:37 -15.61396 -56.51326 16355 ft 361 kts 306°
2026-04-18 20:37 -15.59910 -56.53434 16999 ft 364 kts 306°
2026-04-18 20:37 -15.58417 -56.55552 17632 ft 368 kts 306°
2026-04-18 20:37 -15.56884 -56.57725 18234 ft 372 kts 306°
2026-04-18 20:38 -15.55352 -56.59897 18767 ft 374 kts 306°
2026-04-18 20:38 -15.53830 -56.62054 19294 ft 377 kts 306°
2026-04-18 20:38 -15.52253 -56.64290 19831 ft 380 kts 306°
2026-04-18 20:38 -15.50711 -56.66472 20356 ft 382 kts 306°
2026-04-18 20:39 -15.49136 -56.68703 20878 ft 384 kts 305°
2026-04-18 20:39 -15.47554 -56.70942 21400 ft 386 kts 305°
2026-04-18 20:39 -15.45960 -56.73197 21907 ft 389 kts 305°
2026-04-18 20:39 -15.44357 -56.75465 22420 ft 391 kts 305°
2026-04-18 20:40 -15.42741 -56.77751 22909 ft 394 kts 305°
2026-04-18 20:40 -15.41118 -56.80046 23396 ft 396 kts 305°
2026-04-18 20:40 -15.39487 -56.82351 23803 ft 398 kts 305°
2026-04-18 20:40 -15.37842 -56.84675 24214 ft 400 kts 305°
2026-04-18 20:41 -15.36191 -56.87008 24633 ft 402 kts 305°
2026-04-18 20:41 -15.34536 -56.89345 25031 ft 404 kts 304°
2026-04-18 20:41 -15.32882 -56.91680 25432 ft 405 kts 304°
2026-04-18 20:41 -15.31210 -56.94039 25829 ft 407 kts 304°
2026-04-18 20:42 -15.29525 -56.96416 26215 ft 410 kts 304°
2026-04-18 20:42 -15.27834 -56.98801 26600 ft 412 kts 304°
2026-04-18 20:42 -15.26139 -57.01190 26977 ft 414 kts 304°
2026-04-18 20:42 -15.24431 -57.03597 27352 ft 415 kts 304°
2026-04-18 20:43 -15.22717 -57.06014 27726 ft 417 kts 304°
2026-04-18 20:43 -15.20991 -57.08445 28090 ft 420 kts 304°
2026-04-18 20:43 -15.19254 -57.10891 28436 ft 421 kts 304°
2026-04-18 20:43 -15.17513 -57.13340 28793 ft 423 kts 304°
2026-04-18 20:44 -15.15765 -57.15801 29136 ft 425 kts 304°
2026-04-18 20:44 -15.14013 -57.18265 29475 ft 427 kts 304°
2026-04-18 20:44 -15.12249 -57.20746 29798 ft 429 kts 304°
2026-04-18 20:44 -15.10477 -57.23237 30090 ft 431 kts 304°
2026-04-18 20:45 -15.08694 -57.25744 30351 ft 433 kts 304°
2026-04-18 20:45 -15.06906 -57.28256 30616 ft 435 kts 303°
2026-04-18 20:45 -15.05122 -57.30762 30823 ft 438 kts 304°
2026-04-18 20:45 -15.03285 -57.33341 31064 ft 441 kts 304°
2026-04-18 20:46 -15.01487 -57.35864 31343 ft 442 kts 304°
2026-04-18 20:46 -14.99653 -57.38438 31596 ft 444 kts 303°
2026-04-18 20:46 -14.97818 -57.41013 31872 ft 446 kts 303°
2026-04-18 20:46 -14.95965 -57.43610 32143 ft 447 kts 303°
2026-04-18 20:47 -14.94118 -57.46200 32397 ft 449 kts 303°
2026-04-18 20:47 -14.92255 -57.48810 32648 ft 451 kts 303°
2026-04-18 20:47 -14.90389 -57.51424 32899 ft 453 kts 303°
2026-04-18 20:47 -14.88516 -57.54047 33140 ft 454 kts 303°
2026-04-18 20:48 -14.86634 -57.56681 33448 ft 455 kts 303°
2026-04-18 20:48 -14.84775 -57.59283 33785 ft 454 kts 303°
2026-04-18 20:48 -14.82899 -57.61907 34066 ft 454 kts 303°
2026-04-18 20:48 -14.81027 -57.64525 34344 ft 453 kts 304°
2026-04-18 20:49 -14.79153 -57.67145 34618 ft 453 kts 303°
2026-04-18 20:49 -14.77281 -57.69761 34935 ft 451 kts 303°
2026-04-18 20:49 -14.75417 -57.72365 35239 ft 451 kts 304°
2026-04-18 20:49 -14.73554 -57.74967 35527 ft 450 kts 304°
2026-04-18 20:50 -14.71698 -57.77559 35773 ft 449 kts 304°
2026-04-18 20:50 -14.69836 -57.80158 35822 ft 449 kts 304°
2026-04-18 20:50 -14.66129 -57.85330 35825 ft 446 kts 304°
2026-04-18 20:51 -14.62441 -57.90471 35818 ft 446 kts 304°
2026-04-18 20:51 -14.58744 -57.95623 35822 ft 445 kts 304°
2026-04-18 20:52 -14.55058 -58.00756 35822 ft 446 kts 304°
2026-04-18 20:52 -14.51378 -58.05876 35823 ft 447 kts 304°
2026-04-18 20:53 -14.47664 -58.11042 35832 ft 447 kts 304°
2026-04-18 20:53 -14.43955 -58.16197 35831 ft 447 kts 304°
2026-04-18 20:54 -14.40241 -58.21351 35836 ft 448 kts 306°
2026-04-18 20:54 -14.36175 -58.26234 35853 ft 449 kts 308°
2026-04-18 20:55 -14.32112 -58.31136 35840 ft 448 kts 308°
2026-04-18 20:55 -14.28075 -58.36023 35840 ft 450 kts 308°
2026-04-18 20:56 -14.24015 -58.40937 35834 ft 450 kts 308°
2026-04-18 20:56 -14.19939 -58.45866 35837 ft 450 kts 308°
2026-04-18 20:57 -14.15877 -58.50776 35830 ft 451 kts 308°
2026-04-18 20:57 -14.11799 -58.55703 35833 ft 451 kts 308°
2026-04-18 20:58 -14.07749 -58.60592 35832 ft 451 kts 308°
2026-04-18 20:58 -14.03677 -58.65505 35830 ft 450 kts 308°
2026-04-18 20:59 -13.99621 -58.70396 35827 ft 448 kts 308°
2026-04-18 20:59 -13.96252 -58.74456 35826 ft 449 kts 308°
2026-04-18 21:00 -13.92196 -58.79342 35828 ft 449 kts 308°
2026-04-18 21:00 -13.88142 -58.84223 35831 ft 449 kts 308°
2026-04-18 21:01 -13.84087 -58.89101 35829 ft 449 kts 308°
2026-04-18 21:01 -13.80031 -58.93979 35828 ft 449 kts 308°
2026-04-18 21:02 -13.73893 -59.01354 35833 ft 454 kts 309°
2026-04-18 21:03 -13.69787 -59.06283 35832 ft 454 kts 309°
2026-04-18 21:03 -13.65677 -59.11215 35833 ft 454 kts 309°
2026-04-18 21:04 -13.61569 -59.16143 35834 ft 454 kts 309°
2026-04-18 21:04 -13.57478 -59.21045 35832 ft 454 kts 309°
2026-04-18 21:05 -13.53368 -59.25968 35834 ft 454 kts 309°
2026-04-18 21:05 -13.49242 -59.30908 35831 ft 458 kts 309°
2026-04-18 21:06 -13.45097 -59.35868 35830 ft 456 kts 309°
2026-04-18 21:06 -13.40963 -59.40811 35828 ft 456 kts 309°
2026-04-18 21:07 -13.36832 -59.45748 35831 ft 456 kts 309°
2026-04-18 21:07 -13.32694 -59.50690 35831 ft 456 kts 309°
2026-04-18 21:08 -13.28589 -59.55591 35831 ft 456 kts 309°
2026-04-18 21:08 -13.24451 -59.60527 35832 ft 456 kts 309°
2026-04-18 21:09 -13.20322 -59.65451 35828 ft 454 kts 309°
2026-04-18 21:09 -13.16200 -59.70363 35828 ft 454 kts 309°
2026-04-18 21:10 -13.12073 -59.75279 35828 ft 454 kts 309°
2026-04-18 21:10 -13.07979 -59.80152 35829 ft 454 kts 309°
2026-04-18 21:11 -13.03851 -59.85063 35834 ft 454 kts 309°
2026-04-18 21:11 -12.99725 -59.89968 35829 ft 454 kts 309°
2026-04-18 21:12 -12.95589 -59.94884 35834 ft 456 kts 309°
2026-04-18 21:12 -12.91448 -59.99803 35833 ft 456 kts 309°
2026-04-18 21:13 -12.87293 -60.04734 35864 ft 456 kts 309°
2026-04-18 21:13 -12.83148 -60.09651 35874 ft 456 kts 309°
2026-04-18 21:14 -12.78994 -60.14577 35880 ft 456 kts 309°
2026-04-18 21:14 -12.74874 -60.19460 35880 ft 456 kts 309°
2026-04-18 21:15 -12.70729 -60.24369 35861 ft 456 kts 309°
2026-04-18 21:15 -12.66560 -60.29304 35866 ft 459 kts 310°
2026-04-18 21:16 -12.62380 -60.34251 35830 ft 459 kts 310°
2026-04-18 21:16 -12.58205 -60.39188 35830 ft 459 kts 310°
2026-04-18 21:17 -12.54020 -60.44134 35826 ft 459 kts 310°
2026-04-18 21:17 -12.49842 -60.49069 35828 ft 458 kts 310°
2026-04-18 21:18 -12.45679 -60.53984 35821 ft 457 kts 310°
2026-04-18 21:18 -12.41533 -60.58877 35819 ft 458 kts 310°
2026-04-18 21:19 -12.37350 -60.63810 35818 ft 459 kts 310°
2026-04-18 21:19 -12.33166 -60.68742 35817 ft 459 kts 310°
2026-04-18 21:20 -12.28983 -60.73671 35817 ft 459 kts 310°
2026-04-18 21:20 -12.24802 -60.78594 35814 ft 459 kts 310°
2026-04-18 21:21 -12.20618 -60.83520 35814 ft 459 kts 310°
2026-04-18 21:21 -12.16398 -60.88409 35804 ft 459 kts 316°
2026-04-18 21:22 -12.11579 -60.92705 35818 ft 460 kts 318°
2026-04-18 21:22 -12.06737 -60.96975 35814 ft 460 kts 319°
2026-04-18 21:23 -12.01922 -61.01215 35815 ft 460 kts 319°
2026-04-18 21:23 -11.97070 -61.05484 35805 ft 460 kts 319°
2026-04-18 21:24 -11.92216 -61.09754 35806 ft 460 kts 319°
2026-04-18 21:24 -11.87363 -61.14021 35810 ft 460 kts 319°
2026-04-18 21:25 -11.82513 -61.18283 35809 ft 460 kts 319°
2026-04-18 21:25 -11.77659 -61.22546 35806 ft 460 kts 319°
2026-04-18 21:26 -11.72805 -61.26807 35808 ft 460 kts 319°
2026-04-18 21:26 -11.67951 -61.31066 35807 ft 460 kts 319°
2026-04-18 21:27 -11.63096 -61.35325 35809 ft 460 kts 319°
2026-04-18 21:27 -11.58269 -61.39556 35806 ft 460 kts 319°
2026-04-18 21:28 -11.53412 -61.43810 35802 ft 460 kts 319°
2026-04-18 21:28 -11.48529 -61.48088 35807 ft 460 kts 319°
2026-04-18 21:29 -11.43707 -61.52309 35810 ft 460 kts 319°
2026-04-18 21:29 -11.38854 -61.56555 35804 ft 460 kts 319°
2026-04-18 21:30 -11.33997 -61.60803 35807 ft 460 kts 319°
2026-04-18 21:30 -11.29145 -61.65044 35809 ft 460 kts 319°
2026-04-18 21:31 -11.24279 -61.69296 35804 ft 460 kts 319°
2026-04-18 21:31 -11.19427 -61.73533 35803 ft 460 kts 319°
2026-04-18 21:32 -11.14572 -61.77772 35808 ft 460 kts 319°
2026-04-18 21:32 -11.09708 -61.82015 35806 ft 460 kts 319°
2026-04-18 21:33 -11.04845 -61.86256 35808 ft 461 kts 319°
2026-04-18 21:33 -10.99982 -61.90496 35803 ft 460 kts 319°
2026-04-18 21:34 -10.95143 -61.94713 35801 ft 461 kts 319°
2026-04-18 21:34 -10.90271 -61.98956 35805 ft 461 kts 319°
2026-04-18 21:35 -10.85397 -62.03199 35805 ft 461 kts 319°
2026-04-18 21:35 -10.80519 -62.07443 35803 ft 461 kts 319°
2026-04-18 21:36 -10.75647 -62.11681 35802 ft 461 kts 319°
2026-04-18 21:36 -10.70797 -62.15898 35801 ft 461 kts 319°
2026-04-18 21:37 -10.65916 -62.20139 35797 ft 462 kts 320°
2026-04-18 21:37 -10.61025 -62.24390 35797 ft 462 kts 320°
2026-04-18 21:38 -10.56160 -62.28612 35799 ft 463 kts 320°
2026-04-18 21:38 -10.51236 -62.32886 35800 ft 463 kts 320°
2026-04-18 21:39 -10.46333 -62.37139 35784 ft 457 kts 320°
2026-04-18 21:39 -10.43953 -62.39204 35537 ft 447 kts 320°
2026-04-18 21:39 -10.41596 -62.41248 34993 ft 446 kts 320°
2026-04-18 21:39 -10.39261 -62.43273 34353 ft 448 kts 320°
2026-04-18 21:40 -10.36890 -62.45327 33799 ft 448 kts 320°
2026-04-18 21:40 -10.34529 -62.47372 33246 ft 446 kts 320°
2026-04-18 21:40 -10.32173 -62.49414 32712 ft 443 kts 320°
2026-04-18 21:40 -10.29837 -62.51438 32199 ft 441 kts 320°
2026-04-18 21:41 -10.27789 -62.53212 31761 ft 439 kts 319°
2026-04-18 21:41 -10.25469 -62.55220 31263 ft 436 kts 319°
2026-04-18 21:41 -10.23168 -62.57228 30763 ft 435 kts 317°
2026-04-18 21:41 -10.20948 -62.59319 30207 ft 435 kts 317°
2026-04-18 21:42 -10.18759 -62.61374 29706 ft 433 kts 317°
2026-04-18 21:42 -10.16521 -62.63467 29186 ft 430 kts 317°
2026-04-18 21:42 -10.14331 -62.65513 28717 ft 426 kts 317°
2026-04-18 21:42 -10.12189 -62.67513 28266 ft 423 kts 317°
2026-04-18 21:43 -10.10034 -62.69525 27808 ft 420 kts 317°
2026-04-18 21:43 -10.07888 -62.71527 27349 ft 417 kts 318°
2026-04-18 21:43 -10.05757 -62.73515 26903 ft 414 kts 318°
2026-04-18 21:43 -10.03647 -62.75484 26466 ft 412 kts 317°
2026-04-18 21:44 -10.01538 -62.77451 26030 ft 409 kts 317°
2026-04-18 21:44 -9.99446 -62.79401 25599 ft 407 kts 318°
2026-04-18 21:44 -9.97367 -62.81339 25175 ft 405 kts 318°
2026-04-18 21:44 -9.95295 -62.83271 24756 ft 403 kts 318°
2026-04-18 21:45 -9.93229 -62.85196 24341 ft 402 kts 318°
2026-04-18 21:45 -9.91176 -62.87109 23933 ft 400 kts 318°
2026-04-18 21:45 -9.89130 -62.89015 23521 ft 399 kts 318°
2026-04-18 21:45 -9.87116 -62.90891 23075 ft 398 kts 318°
2026-04-18 21:46 -9.85081 -62.92786 22621 ft 395 kts 318°
2026-04-18 21:46 -9.83065 -62.94664 22215 ft 392 kts 318°
2026-04-18 21:46 -9.81040 -62.96549 21815 ft 389 kts 318°
2026-04-18 21:46 -9.79075 -62.98379 21426 ft 386 kts 318°
2026-04-18 21:47 -9.77103 -63.00213 21042 ft 383 kts 318°
2026-04-18 21:47 -9.75141 -63.02039 20654 ft 381 kts 318°
2026-04-18 21:47 -9.73193 -63.03851 20267 ft 379 kts 318°
2026-04-18 21:47 -9.71906 -63.05049 20013 ft 377 kts 318°
2026-04-18 21:48 -9.69331 -63.07444 19508 ft 374 kts 318°
2026-04-18 21:48 -9.68058 -63.08628 19246 ft 373 kts 318°
2026-04-18 21:48 -9.66155 -63.10396 18884 ft 371 kts 318°
2026-04-18 21:48 -9.64256 -63.12162 18509 ft 369 kts 318°
2026-04-18 21:49 -9.61756 -63.14486 18006 ft 367 kts 317°
2026-04-18 21:49 -9.59875 -63.16234 17585 ft 365 kts 317°
2026-04-18 21:49 -9.58635 -63.17386 17322 ft 363 kts 317°
2026-04-18 21:49 -9.56754 -63.19134 16945 ft 360 kts 317°
2026-04-18 21:50 -9.54917 -63.20839 16577 ft 357 kts 317°
2026-04-18 21:50 -9.53116 -63.22513 16220 ft 355 kts 317°
2026-04-18 21:50 -9.51304 -63.24195 15857 ft 352 kts 317°
2026-04-18 21:50 -9.49505 -63.25866 15501 ft 349 kts 317°
2026-04-18 21:51 -9.47720 -63.27523 15148 ft 347 kts 317°
2026-04-18 21:51 -9.45941 -63.29174 14799 ft 345 kts 317°
2026-04-18 21:51 -9.44182 -63.30807 14453 ft 342 kts 317°
2026-04-18 21:51 -9.42430 -63.32433 14093 ft 340 kts 317°
2026-04-18 21:52 -9.40689 -63.34047 13756 ft 338 kts 317°
2026-04-18 21:52 -9.38955 -63.35657 13373 ft 337 kts 317°
2026-04-18 21:52 -9.37233 -63.37254 12992 ft 335 kts 317°
2026-04-18 21:52 -9.35522 -63.38840 12641 ft 332 kts 317°
2026-04-18 21:53 -9.33824 -63.40414 12297 ft 329 kts 317°
2026-04-18 21:53 -9.32169 -63.41949 11966 ft 326 kts 317°
2026-04-18 21:53 -9.30505 -63.43492 11628 ft 323 kts 317°
2026-04-18 21:53 -9.28846 -63.45030 11295 ft 321 kts 317°
2026-04-18 21:54 -9.27211 -63.46545 10952 ft 314 kts 317°
2026-04-18 21:54 -9.25628 -63.48012 10630 ft 303 kts 317°
2026-04-18 21:54 -9.24085 -63.49442 10338 ft 300 kts 317°
2026-04-18 21:54 -9.22552 -63.50861 10083 ft 296 kts 317°
2026-04-18 21:55 -9.21048 -63.52255 9929 ft 288 kts 317°
2026-04-18 21:55 -9.19591 -63.53605 9745 ft 282 kts 317°
2026-04-18 21:55 -9.18142 -63.54947 9425 ft 281 kts 317°
2026-04-18 21:55 -9.16715 -63.56268 9102 ft 280 kts 317°
2026-04-18 21:56 -9.15281 -63.57596 8797 ft 278 kts 317°
2026-04-18 21:56 -9.13853 -63.58918 8497 ft 276 kts 317°
2026-04-18 21:56 -9.12436 -63.60230 8206 ft 274 kts 317°
2026-04-18 21:56 -9.11032 -63.61530 7912 ft 273 kts 317°
2026-04-18 21:57 -9.09632 -63.62824 7620 ft 271 kts 317°
2026-04-18 21:57 -9.08246 -63.64107 7336 ft 269 kts 316°
2026-04-18 21:57 -9.06867 -63.65383 7048 ft 268 kts 316°
2026-04-18 21:57 -9.05498 -63.66649 6769 ft 266 kts 316°
2026-04-18 21:58 -9.04150 -63.67897 6490 ft 265 kts 316°
2026-04-18 21:58 -9.02789 -63.69156 6205 ft 265 kts 316°
2026-04-18 21:58 -9.01428 -63.70415 5898 ft 264 kts 316°
2026-04-18 21:58 -9.00072 -63.71669 5611 ft 263 kts 316°
2026-04-18 21:59 -8.98724 -63.72915 5315 ft 262 kts 316°
2026-04-18 21:59 -8.97381 -63.74156 5044 ft 260 kts 316°
2026-04-18 21:59 -8.96063 -63.75375 4883 ft 253 kts 316°
2026-04-18 21:59 -8.94786 -63.76556 4763 ft 245 kts 316°
2026-04-18 22:00 -8.93548 -63.77701 4629 ft 237 kts 316°
2026-04-18 22:00 -8.92357 -63.78806 4526 ft 227 kts 315°
2026-04-18 22:00 -8.91522 -63.80106 4309 ft 219 kts 288°
2026-04-18 22:00 -8.91065 -63.81541 4052 ft 210 kts 287°
2026-04-18 22:01 -8.90630 -63.82930 3808 ft 205 kts 287°
2026-04-18 22:01 -8.90214 -63.84279 3562 ft 196 kts 286°
2026-04-18 22:01 -8.89828 -63.85549 3415 ft 182 kts 285°
2026-04-18 22:01 -8.89475 -63.86716 3353 ft 170 kts 285°
2026-04-18 22:02 -8.89122 -63.87834 3246 ft 169 kts 292°
2026-04-18 22:02 -8.88359 -63.88716 3096 ft 170 kts 326°
2026-04-18 22:02 -8.87240 -63.89109 2975 ft 171 kts 350°
2026-04-18 22:02 -8.86094 -63.89236 2788 ft 161 kts 352°
2026-04-18 22:03 -8.85006 -63.89376 2764 ft 156 kts 351°
2026-04-18 22:03 -8.83925 -63.89469 2726 ft 155 kts 354°
2026-04-18 22:03 -8.82848 -63.89534 2580 ft 154 kts 354°
2026-04-18 22:03 -8.81780 -63.89600 2425 ft 154 kts 354°
2026-04-18 22:04 -8.80714 -63.89664 2153 ft 153 kts 355°
2026-04-18 22:04 -8.79650 -63.89723 1849 ft 153 kts 355°
2026-04-18 22:04 -8.78602 -63.89782 1607 ft 153 kts 355°
2026-04-18 22:04 -8.77543 -63.89842 1387 ft 153 kts 355°
2026-04-18 22:05 -8.76483 -63.89901 1210 ft 152 kts 355°
2026-04-18 22:05 -8.75425 -63.89962 1057 ft 151 kts 355°
2026-04-18 22:05 -8.74374 -63.90036 882 ft 152 kts 356°
2026-04-18 22:05 -8.73321 -63.90100 658 ft 149 kts 357°
2026-04-18 22:06 -8.72294 -63.90150 392 ft 146 kts 357°
2026-04-18 22:06 -8.71351 -63.90206 303 ft 111 kts 356°
2026-04-18 22:06 -8.70816 -63.90237 304 ft 58 kts 356°
2026-04-18 22:06 -8.70674 -63.90218 302 ft 3 kts 57°
2026-04-18 22:07 -8.70666 -63.90217 306 ft 3 kts 352°
2026-04-18 22:07 -8.70604 -63.90244 304 ft 17 kts 345°
2026-04-18 22:07 -8.70469 -63.90256 306 ft 21 kts 356°
2026-04-18 22:07 -8.70337 -63.90255 303 ft 14 kts 29°
2026-04-18 22:08 -8.70305 -63.90174 304 ft 13 kts 87°
2026-04-18 22:08 -8.70351 -63.90120 303 ft 12 kts 171°
2026-04-18 22:08 -8.70443 -63.90114 305 ft 14 kts 176°
2026-04-18 22:08 -8.70547 -63.90108 303 ft 16 kts 178°
2026-04-18 22:09 -8.70665 -63.90100 302 ft 18 kts 178°
2026-04-18 22:09 -8.70795 -63.90092 302 ft 19 kts 179°
2026-04-18 22:09 -8.70936 -63.90086 302 ft 21 kts 176°
2026-04-18 22:09 -8.71089 -63.90075 303 ft 23 kts 174°
2026-04-18 22:10 -8.71252 -63.90065 305 ft 23 kts 176°
2026-04-18 22:10 -8.71367 -63.90055 303 ft 15 kts 175°
2026-04-18 22:10 -8.71453 -63.90037 304 ft 7 kts 124°
2026-04-18 22:10 -8.71464 -63.89985 302 ft 8 kts 84°
2026-04-18 22:11 -8.71460 -63.89933 302 ft 4 kts 86°
2026-04-18 22:11 -8.71460 -63.89929 302 ft 0 kts 86°